Regional Weather Roundup
Issued by NWS Mobile, AL

Home | Current Version | Previous Version | Text Only | Print | Product List | Glossary On
Versions: 1 2 3 4 5 6 7 8 9 10 11 12 13 14 15 16 17 18 19 20 21 22 23 24 25 26 27 28 29 30 31 32 33 34 35 36 37 38 39 40 41 42 43 44 45 46 47 48 49 50
000
ASUS44 KMOB 271613
RWRMOB
REGIONAL WEATHER ROUNDUP
NATIONAL WEATHER SERVICE MOBILE AL
1100 AM CDT THU JUL 27 2017

NOTE: "FAIR" INDICATES FEW OR NO CLOUDS BELOW 12,000 FEET WITH NO
      SIGNIFICANT WEATHER AND/OR OBSTRUCTIONS TO VISIBILITY.

  * THESE STATIONS ARE PART OF THE UNIVERSITY OF SOUTH ALABAMA
    MESONET AND ARE NOT UNDER NWS OR FAA QUALITY CONTROL.

ALZ061>064-271700-
COASTAL ALABAMA

CITY           SKY/WX    TMP DP  RH WIND       PRES   REMARKS
MOBILE REG APT MOSUNNY   92  75  57 N6        30.07S HX 103
BROOKLEY FIELD SUNNY     90  79  70 E7        30.07S HX 106
USA CAMPUS*      N/A     90  75  62 CALM      30.06S HX 100
DOG RIVER*     NOT AVBL


CITY           SKY/WX    TMP DP  RH WIND       PRES   REMARKS
GULF SHORES    SUNNY     89  77  67 N3        30.05S HX 102

$$

ALZ051>060-271700-
INTERIOR SOUTHWEST AND SOUTH CENTRAL ALABAMA

CITY           SKY/WX    TMP DP  RH WIND       PRES   REMARKS
GREENVILLE     SUNNY     89  74  60 N6        30.06F HX  98
EVERGREEN      SUNNY     90  76  63 NE6       30.07F HX 101
ATMORE*        NOT AVBL
ANDALUSIA/OPP  SUNNY     90  75  61 VRB3      30.06S HX 100
ANDALUSIA*       N/A     86  75  70 NW7       30.07F HX  95
FLORALA APT    SUNNY     88  73  61 NE3       30.07F HX  95
FLORALA*         N/A     88  75  66 NW3       30.75F HX  97

$$

FLZ001>006-271700-
WESTERN FLORIDA PANHANDLE

CITY           SKY/WX    TMP DP  RH WIND       PRES   REMARKS
PENSACOLA      MOSUNNY   91  74  57 VRB6      30.05F HX 100
NAS PENSACOLA  CLOUDY    88  75  65 CALM      30.04F HX  97
MILTON         MOSUNNY   89  77  67 VRB6      30.05F HX 101
WHTNG S FIELD  MOSUNNY   91  79  67 VRB6      30.05F HX 107


CITY           SKY/WX    TMP DP  RH WIND       PRES   REMARKS
JAY*             N/A     88  72  58 NW3       30.05F
DUKE FIELD     MOSUNNY   86  73  64 NW5       30.04F
CRESTVIEW      SUNNY     88  74  63 VRB6      30.06F HX  96
VALPARAISO     MOSUNNY   87  74  65 CALM      30.04F HX  96
DESTIN         SUNNY     90  72  55 VRB5      30.04F HX  97

$$

MSZ076-079-271700-
INTERIOR SOUTHEAST MISSISSIPPI

CITY           SKY/WX    TMP DP  RH WIND       PRES   REMARKS
LEAKESVILLE*   NOT AVBL
AGRICOLA*        N/A     88  75  66 N5        30.06S HX  97

$$

MARINE OBSERVATIONS

STATION/POSITION TIME  TEMP    WIND        PRES    WAVE
                       AIR SEA DIR/SP/G            HT/PER
                 (UTC) (F)     (DEG/KT/KT) (MB)    (FT/S)
PASCAGOULA       1548   89      10/  6/  8 1017.8F
PETIT BOIS ISLND 1548   88     330/  4/  6 1018.7S
GRAND BAY        1445   86     350/  6     1019.0R
KATRINA CUT      1530   85     280/  1     1018.3R
CEDAR POINT      1530   84      60/  6     1018.0F
E DAUPHIN ISLAND 1500   83      20/  5/  6 1017.4S
MIDDLE BAY LIGHT 1530   86     360/  9     1017.6F
USCG MOBILE BAY  1548   87 85  110/  7/  9 1018.3F
STATE DOCKS      1542   94 86              1017.5F
MEAHER PARK      1530   87     310/  3     1017.6F
WEEKS BAY        1445   87                   N/A
FORT MORGAN      1548   84      10/  6/  7   N/A
12 S ORANGE BCH  1550   84 86   40/  6/  6 1017.4S   1
PENSACOLA BAY    1542   89 86              1017.8F
64 S DAUPHIN ISL 1550   86 87  360/  6/  6 1017.8F   1/ 3
67 S FORT MORGAN 1530   86      20/  2     1017.6S

$$

SELECTED LOCATIONS ACROSS THE REGION

CITY           SKY/WX    TMP DP  RH WIND       PRES   REMARKS
NEW ORLEANS    MOSUNNY   88  76  67 N8        30.08S HX  99
GULFPORT       SUNNY     91  71  51 NW8       30.06S HX  97
PASCAGOULA AP  SUNNY     91  73  55 VRB6      30.06S HX  99
PASCAGOULA*      N/A     88  73  62 NE5         N/A  HX  96
HATTIESBURG    SUNNY     89  76  65 CALM      30.09S HX 100
LAUREL         SUNNY     90  75  61 N6        30.10S HX 100
MERIDIAN       SUNNY     92  76  59 NW8       30.08R HX 104
JACKSON        SUNNY     89  76  65 W8        30.09S HX 100
MONTGOMERY     SUNNY     89  74  60 CALM      30.06F HX  98
TROY           SUNNY     87  76  69 SW3       30.07F HX  97
ASHFORD*         N/A     86  75  70 NW7       30.07F HX  95
DOTHAN         SUNNY     86  76  71 NW3       30.09F HX  96
PANAMA CITY    SUNNY     89  75  63 CALM      30.02F HX  99

$$




USA.gov is the U.S. government's official web portal to all federal, state and local government web resources and services.